Wetterdaten: Woche 15.02.16 - 21.02.16 (KW7)
Datum Zeit Auen-Temp. Temp gefhlt Luftfeuchte Luftdruck Regen Wind Richtung Sonnenschein Taupunkt Windben
15.02.2016 00:00 0,5 C 0,2 C 91 % 997,3 hPa 0,0 mm 0,2 km/h (0 Bft) N 0,00 h -0,7 C 0,3 km/h (0 Bft)
15.02.2016 01:00 0,0 C -0,3 C 92 % 997,8 hPa 0,0 mm 0,1 km/h (0 Bft) N 0,00 h -1,1 C 0,0 km/h (0 Bft)
15.02.2016 02:00 -0,0 C -0,3 C 92 % 998,4 hPa 0,0 mm 0,8 km/h (0 Bft) O-SO 0,00 h -1,2 C 1,0 km/h (0 Bft)
15.02.2016 03:00 0,0 C -0,2 C 91 % 998,9 hPa 0,0 mm 0,5 km/h (0 Bft) O-SO 0,00 h -1,2 C 0,9 km/h (0 Bft)
15.02.2016 04:00 -0,1 C -0,3 C 92 % 999,7 hPa 0,0 mm 1,0 km/h (0 Bft) O-SO 0,00 h -1,3 C 1,2 km/h (1 Bft)
15.02.2016 05:00 -0,5 C -0,8 C 92 % 1000,1 hPa 0,0 mm 0,5 km/h (0 Bft) O-SO 0,00 h -1,6 C 0,8 km/h (0 Bft)
15.02.2016 06:00 -0,2 C -0,5 C 94 % 1000,6 hPa 0,0 mm 0,2 km/h (0 Bft) N 0,00 h -1,1 C 0,2 km/h (0 Bft)
15.02.2016 07:00 -0,4 C -0,6 C 93 % 1001,4 hPa 0,0 mm 0,1 km/h (0 Bft) N 0,00 h -1,4 C 0,2 km/h (0 Bft)
15.02.2016 08:00 0,3 C 0,2 C 89 % 1002,3 hPa 0,0 mm 0,8 km/h (0 Bft) O-SO 0,00 h -1,3 C 0,9 km/h (0 Bft)
15.02.2016 09:00 0,9 C 1,1 C 88 % 1003,3 hPa 0,7 mm 0,3 km/h (0 Bft) O 0,00 h -0,9 C 0,6 km/h (0 Bft)
15.02.2016 10:00 1,7 C 2,3 C 88 % 1004,4 hPa 0,0 mm 0,0 km/h (0 Bft) N 0,00 h -0,1 C 0,0 km/h (0 Bft)
15.02.2016 11:00 3,1 C 5,3 C 86 % 1005,1 hPa 0,0 mm 0,9 km/h (0 Bft) W-SW 0,82 h 1,1 C 1,6 km/h (1 Bft)
15.02.2016 12:00 3,0 C 4,3 C 84 % 1005,9 hPa 0,0 mm 1,6 km/h (1 Bft) NO 0,02 h 0,5 C 2,1 km/h (1 Bft)
15.02.2016 13:00 3,5 C 5,2 C 82 % 1006,6 hPa 0,0 mm 1,2 km/h (1 Bft) N-NO 0,08 h 0,6 C 1,7 km/h (1 Bft)
15.02.2016 14:00 3,4 C 4,0 C 79 % 1010,7 hPa 0,0 mm 1,0 km/h (0 Bft) NW 0,12 h 0,1 C 1,1 km/h (1 Bft)
15.02.2016 15:00 2,8 C 2,9 C 81 % 1012,3 hPa 0,0 mm 2,3 km/h (1 Bft) SW 0,00 h -0,0 C 3,8 km/h (1 Bft)
15.02.2016 16:00 2,5 C 2,4 C 84 % 1013,1 hPa 0,0 mm 3,3 km/h (1 Bft) SW 0,00 h 0,0 C 3,2 km/h (1 Bft)
15.02.2016 17:00 2,1 C 1,9 C 86 % 1014,1 hPa 0,0 mm 0,0 km/h (0 Bft) N 0,00 h 0,0 C 0,0 km/h (0 Bft)
15.02.2016 18:00 1,6 C 1,1 C 88 % 1015,5 hPa 0,7 mm 5,1 km/h (1 Bft) W-NW 0,00 h -0,2 C 7,5 km/h (2 Bft)
15.02.2016 19:00 1,1 C 0,8 C 88 % 1016,7 hPa 0,0 mm 4,7 km/h (1 Bft) NW 0,00 h -0,7 C 5,0 km/h (1 Bft)
15.02.2016 20:00 1,4 C 1,1 C 90 % 1017,6 hPa 0,0 mm 5,1 km/h (1 Bft) NW 0,00 h -0,1 C 6,8 km/h (2 Bft)
15.02.2016 21:00 1,4 C 0,9 C 90 % 1018,6 hPa 0,0 mm 7,0 km/h (2 Bft) NW 0,00 h -0,1 C 9,0 km/h (2 Bft)
15.02.2016 22:00 1,2 C 0,9 C 89 % 1019,5 hPa 0,0 mm 5,8 km/h (2 Bft) N-NO 0,00 h -0,4 C 7,1 km/h (2 Bft)
15.02.2016 23:00 1,2 C 0,9 C 88 % 1020,2 hPa 0,0 mm 5,9 km/h (2 Bft) N-NO 0,00 h -0,6 C 8,1 km/h (2 Bft)
16.02.2016 00:00 1,0 C 0,8 C 88 % 1021,1 hPa 0,0 mm 3,3 km/h (1 Bft) N-NW 0,00 h -0,7 C 5,1 km/h (1 Bft)
16.02.2016 01:00 0,7 C 0,3 C 89 % 1022,1 hPa 0,0 mm 6,4 km/h (2 Bft) N-NO 0,00 h -0,9 C 9,1 km/h (2 Bft)
16.02.2016 02:00 0,5 C 0,2 C 90 % 1022,8 hPa 0,0 mm 4,9 km/h (1 Bft) NW 0,00 h -0,9 C 6,7 km/h (2 Bft)
16.02.2016 03:00 0,4 C -0,1 C 91 % 1023,3 hPa 0,0 mm 6,7 km/h (2 Bft) N-NO 0,00 h -0,9 C 8,9 km/h (2 Bft)
16.02.2016 04:00 0,2 C -0,1 C 91 % 1023,8 hPa 0,0 mm 5,4 km/h (1 Bft) N-NO 0,00 h -1,1 C 6,1 km/h (2 Bft)
16.02.2016 05:00 0,0 C -0,2 C 91 % 1024,4 hPa 0,0 mm 4,5 km/h (1 Bft) N-NO 0,00 h -1,3 C 5,4 km/h (1 Bft)
16.02.2016 06:00 -0,1 C -0,4 C 90 % 1025,0 hPa 0,0 mm 4,9 km/h (1 Bft) N-NO 0,00 h -1,5 C 6,9 km/h (2 Bft)
16.02.2016 07:00 -0,5 C -1,0 C 91 % 1025,7 hPa 0,0 mm 7,5 km/h (2 Bft) N-NO 0,00 h -1,8 C 10,5 km/h (2 Bft)
16.02.2016 08:00 -0,7 C -1,3 C 88 % 1026,5 hPa 0,0 mm 7,6 km/h (2 Bft) N-NO 0,00 h -2,4 C 9,8 km/h (2 Bft)
16.02.2016 09:00 -0,9 C -0,9 C 88 % 1027,0 hPa 0,0 mm 4,4 km/h (1 Bft) N-NO 0,00 h -2,6 C 6,1 km/h (2 Bft)
16.02.2016 10:00 -0,8 C -0,8 C 87 % 1027,4 hPa 0,0 mm 5,6 km/h (1 Bft) NO 0,00 h -2,6 C 6,9 km/h (2 Bft)
16.02.2016 11:00 -0,7 C -1,1 C 88 % 1027,7 hPa 0,0 mm 9,8 km/h (2 Bft) O-NO 0,00 h -2,5 C 12,6 km/h (3 Bft)
16.02.2016 12:00 -0,9 C -1,0 C 88 % 1027,6 hPa 0,0 mm 9,7 km/h (2 Bft) O-NO 0,00 h -2,6 C 12,5 km/h (3 Bft)
16.02.2016 13:00 -0,8 C -0,9 C 88 % 1027,4 hPa 0,0 mm 8,0 km/h (2 Bft) NO 0,00 h -2,5 C 10,6 km/h (2 Bft)
16.02.2016 14:00 -0,8 C -1,0 C 88 % 1027,2 hPa 0,0 mm 8,0 km/h (2 Bft) NO 0,00 h -2,5 C 10,0 km/h (2 Bft)
16.02.2016 15:00 -0,7 C -1,0 C 88 % 1027,3 hPa 0,0 mm 6,6 km/h (2 Bft) O-NO 0,00 h -2,4 C 8,7 km/h (2 Bft)
16.02.2016 16:00 -0,6 C -1,0 C 88 % 1027,1 hPa 0,0 mm 6,4 km/h (2 Bft) O-NO 0,00 h -2,3 C 8,4 km/h (2 Bft)
16.02.2016 17:00 -0,5 C -0,8 C 89 % 1027,1 hPa 0,0 mm 5,5 km/h (1 Bft) O-NO 0,00 h -2,0 C 7,6 km/h (2 Bft)
16.02.2016 18:00 -0,3 C -0,6 C 93 % 1027,2 hPa 0,0 mm 4,9 km/h (1 Bft) O-NO 0,00 h -1,3 C 6,9 km/h (2 Bft)
16.02.2016 19:00 -0,2 C -0,8 C 93 % 1027,0 hPa 0,0 mm 9,0 km/h (2 Bft) O-NO 0,00 h -1,2 C 11,5 km/h (2 Bft)
16.02.2016 20:00 -0,1 C -0,8 C 95 % 1026,4 hPa 0,0 mm 9,5 km/h (2 Bft) O-NO 0,00 h -0,8 C 12,1 km/h (2 Bft)
16.02.2016 21:00 -0,1 C -0,8 C 95 % 1025,7 hPa 0,0 mm 8,0 km/h (2 Bft) O-NO 0,00 h -0,9 C 10,7 km/h (2 Bft)
16.02.2016 22:00 -0,3 C -1,0 C 94 % 1025,0 hPa 0,0 mm 9,0 km/h (2 Bft) O-NO 0,00 h -1,1 C 11,6 km/h (2 Bft)
16.02.2016 23:00 -0,6 C -1,2 C 93 % 1024,1 hPa 0,0 mm 8,1 km/h (2 Bft) NO 0,00 h -1,5 C 9,5 km/h (2 Bft)
17.02.2016 00:00 -0,8 C -1,6 C 92 % 1023,2 hPa 0,0 mm 10,2 km/h (2 Bft) O-NO 0,00 h -1,9 C 13,3 km/h (3 Bft)
17.02.2016 01:00 -1,0 C -1,8 C 93 % 1022,3 hPa 0,0 mm 10,0 km/h (2 Bft) O-NO 0,00 h -2,1 C 11,8 km/h (2 Bft)
17.02.2016 02:00 -1,2 C -1,9 C 93 % 1021,5 hPa 0,0 mm 8,7 km/h (2 Bft) O-NO 0,00 h -2,1 C 10,5 km/h (2 Bft)
17.02.2016 03:00 -1,2 C -1,7 C 92 % 1020,5 hPa 0,0 mm 6,9 km/h (2 Bft) O-NO 0,00 h -2,3 C 8,9 km/h (2 Bft)
17.02.2016 04:00 -1,1 C -1,5 C 92 % 1019,7 hPa 0,0 mm 6,7 km/h (2 Bft) NO 0,00 h -2,3 C 8,8 km/h (2 Bft)
17.02.2016 05:00 -1,1 C -1,4 C 95 % 1019,2 hPa 0,0 mm 5,5 km/h (1 Bft) NO 0,00 h -1,9 C 6,9 km/h (2 Bft)
17.02.2016 06:00 -1,1 C -1,4 C 94 % 1018,4 hPa 0,0 mm 4,9 km/h (1 Bft) NO 0,00 h -1,9 C 6,3 km/h (2 Bft)
17.02.2016 07:00 -1,2 C -1,5 C 95 % 1017,7 hPa 0,0 mm 5,4 km/h (1 Bft) NO 0,00 h -1,9 C 5,9 km/h (2 Bft)
17.02.2016 08:00 -1,2 C -1,3 C 92 % 1017,4 hPa 0,0 mm 2,5 km/h (1 Bft) NO 0,00 h -2,4 C 3,3 km/h (1 Bft)
17.02.2016 09:00 -1,1 C -1,0 C 91 % 1017,2 hPa 0,0 mm 0,9 km/h (0 Bft) NO 0,00 h -2,4 C 1,1 km/h (1 Bft)
17.02.2016 10:00 -0,8 C -0,1 C 91 % 1016,7 hPa 0,0 mm 0,2 km/h (0 Bft) N 0,00 h -2,0 C 0,3 km/h (0 Bft)
17.02.2016 11:00 0,2 C 1,6 C 91 % 1016,2 hPa 0,0 mm 1,5 km/h (1 Bft) NO 0,00 h -1,1 C 2,8 km/h (1 Bft)
17.02.2016 12:00 0,2 C 1,1 C 91 % 1015,7 hPa 0,0 mm 3,6 km/h (1 Bft) NW 0,00 h -1,1 C 4,4 km/h (1 Bft)
17.02.2016 13:00 0,3 C 0,7 C 91 % 1015,2 hPa 0,0 mm 2,1 km/h (1 Bft) NW 0,00 h -1,1 C 3,0 km/h (1 Bft)
17.02.2016 14:00 0,3 C 0,6 C 90 % 1014,8 hPa 0,7 mm 1,4 km/h (1 Bft) W 0,00 h -1,1 C 1,8 km/h (1 Bft)
17.02.2016 15:00 0,3 C 0,5 C 89 % 1014,8 hPa 0,0 mm 2,2 km/h (1 Bft) W 0,00 h -1,3 C 2,8 km/h (1 Bft)
17.02.2016 16:00 0,0 C -0,0 C 89 % 1014,8 hPa 0,7 mm 3,1 km/h (1 Bft) W 0,00 h -1,6 C 3,1 km/h (1 Bft)
17.02.2016 17:00 -0,0 C -0,2 C 88 % 1014,8 hPa 0,0 mm 0,2 km/h (0 Bft) N 0,00 h -1,8 C 0,0 km/h (0 Bft)
17.02.2016 18:00 -0,1 C -0,3 C 88 % 1015,1 hPa 0,0 mm 0,0 km/h (0 Bft) N 0,00 h -1,8 C 0,0 km/h (0 Bft)
17.02.2016 19:00 -0,1 C -0,4 C 89 % 1015,2 hPa 0,0 mm 0,0 km/h (0 Bft) N 0,00 h -1,8 C 0,0 km/h (0 Bft)
17.02.2016 20:00 -0,2 C -0,4 C 90 % 1015,1 hPa 0,0 mm 0,0 km/h (0 Bft) N 0,00 h -1,7 C 0,0 km/h (0 Bft)
17.02.2016 21:00 -0,2 C -0,4 C 89 % 1015,2 hPa 0,0 mm 0,0 km/h (0 Bft) N 0,00 h -1,7 C 0,0 km/h (0 Bft)
17.02.2016 22:00 -0,1 C -0,3 C 89 % 1015,6 hPa 0,0 mm 0,0 km/h (0 Bft) N 0,00 h -1,7 C 0,0 km/h (0 Bft)
17.02.2016 23:00 -0,2 C -0,4 C 90 % 1015,7 hPa 0,0 mm 0,1 km/h (0 Bft) N 0,00 h -1,7 C 0,1 km/h (0 Bft)
18.02.2016 00:00 -0,2 C -0,4 C 90 % 1015,7 hPa 0,0 mm 0,0 km/h (0 Bft) N 0,00 h -1,6 C 0,0 km/h (0 Bft)
18.02.2016 01:00 -0,3 C -0,5 C 91 % 1015,8 hPa 0,0 mm 1,1 km/h (0 Bft) W 0,00 h -1,6 C 2,2 km/h (1 Bft)
18.02.2016 02:00 -0,4 C -0,7 C 90 % 1015,7 hPa 0,0 mm 3,2 km/h (1 Bft) W 0,00 h -1,9 C 5,0 km/h (1 Bft)
18.02.2016 03:00 -0,6 C -0,8 C 88 % 1015,6 hPa 0,0 mm 2,9 km/h (1 Bft) O-NO 0,00 h -2,2 C 2,9 km/h (1 Bft)
18.02.2016 04:00 -0,6 C -0,7 C 88 % 1015,8 hPa 0,0 mm 0,1 km/h (0 Bft) N 0,00 h -2,3 C 0,2 km/h (0 Bft)
18.02.2016 05:00 -0,6 C -0,8 C 90 % 1015,6 hPa 0,0 mm 0,0 km/h (0 Bft) N 0,00 h -2,1 C 0,1 km/h (0 Bft)
18.02.2016 06:00 -0,6 C -0,8 C 90 % 1015,5 hPa 0,0 mm 0,7 km/h (0 Bft) O-NO 0,00 h -2,0 C 1,2 km/h (1 Bft)
18.02.2016 07:00 -0,7 C -0,8 C 88 % 1015,4 hPa 0,0 mm 1,8 km/h (1 Bft) O-NO 0,00 h -2,4 C 3,0 km/h (1 Bft)
18.02.2016 08:00 -0,6 C -0,6 C 88 % 1015,8 hPa 0,0 mm 2,8 km/h (1 Bft) O-NO 0,00 h -2,3 C 3,6 km/h (1 Bft)
18.02.2016 09:00 -0,4 C -0,1 C 88 % 1016,0 hPa 0,0 mm 2,6 km/h (1 Bft) O-NO 0,00 h -2,1 C 3,2 km/h (1 Bft)
18.02.2016 10:00 0,1 C 0,6 C 88 % 1016,0 hPa 0,0 mm 0,5 km/h (0 Bft) O-NO 0,00 h -1,7 C 1,1 km/h (1 Bft)
18.02.2016 11:00 0,2 C 0,8 C 88 % 1016,1 hPa 0,0 mm 1,9 km/h (1 Bft) O-NO 0,00 h -1,6 C 2,2 km/h (1 Bft)
18.02.2016 12:00 0,5 C 1,1 C 87 % 1016,0 hPa 0,7 mm 0,3 km/h (0 Bft) O-NO 0,00 h -1,5 C 0,6 km/h (0 Bft)
18.02.2016 13:00 0,6 C 1,3 C 87 % 1015,5 hPa 0,0 mm 0,6 km/h (0 Bft) NO 0,00 h -1,4 C 0,6 km/h (0 Bft)
18.02.2016 14:00 0,6 C 1,1 C 86 % 1015,4 hPa 0,7 mm 0,2 km/h (0 Bft) O-SO 0,00 h -1,5 C 0,2 km/h (0 Bft)
18.02.2016 15:00 0,9 C 1,7 C 85 % 1015,2 hPa 0,0 mm 0,1 km/h (0 Bft) N 0,00 h -1,3 C 0,1 km/h (0 Bft)
18.02.2016 16:00 0,8 C 1,0 C 85 % 1015,3 hPa 0,0 mm 0,1 km/h (0 Bft) N 0,00 h -1,4 C 0,0 km/h (0 Bft)
18.02.2016 17:00 0,4 C 0,2 C 85 % 1015,5 hPa 0,0 mm 0,2 km/h (0 Bft) S-SO 0,00 h -1,7 C 0,3 km/h (0 Bft)
18.02.2016 18:00 -0,1 C -0,4 C 87 % 1015,8 hPa 0,0 mm 1,8 km/h (1 Bft) S-SO 0,00 h -2,0 C 2,1 km/h (1 Bft)
18.02.2016 19:00 -0,9 C -1,5 C 88 % 1016,0 hPa 0,0 mm 0,0 km/h (0 Bft) N 0,00 h -2,7 C 0,0 km/h (0 Bft)
18.02.2016 20:00 -1,4 C -2,0 C 89 % 1015,9 hPa 0,0 mm 1,2 km/h (1 Bft) O-SO 0,00 h -3,1 C 1,6 km/h (1 Bft)
18.02.2016 21:00 -1,4 C -1,8 C 89 % 1015,8 hPa 0,0 mm 0,0 km/h (0 Bft) N 0,00 h -3,0 C 0,0 km/h (0 Bft)
18.02.2016 22:00 -1,3 C -1,7 C 90 % 1015,8 hPa 0,0 mm 0,7 km/h (0 Bft) O-SO 0,00 h -2,8 C 0,8 km/h (0 Bft)
18.02.2016 23:00 -2,2 C -2,7 C 89 % 1015,9 hPa 0,0 mm 0,0 km/h (0 Bft) N 0,00 h -3,7 C 0,0 km/h (0 Bft)
19.02.2016 00:00 -2,6 C -3,1 C 90 % 1016,0 hPa 0,0 mm 0,2 km/h (0 Bft) N 0,00 h -4,1 C 0,3 km/h (0 Bft)
19.02.2016 01:00 -1,7 C -2,0 C 91 % 1016,0 hPa 0,0 mm 0,7 km/h (0 Bft) O-SO 0,00 h -2,9 C 0,7 km/h (0 Bft)
19.02.2016 02:00 -1,3 C -1,6 C 90 % 1016,1 hPa 0,0 mm 0,0 km/h (0 Bft) N 0,00 h -2,8 C 0,0 km/h (0 Bft)
19.02.2016 03:00 -1,4 C -1,7 C 90 % 1016,1 hPa 0,0 mm 0,1 km/h (0 Bft) N 0,00 h -2,8 C 0,0 km/h (0 Bft)
19.02.2016 04:00 -1,3 C -1,6 C 89 % 1016,5 hPa 0,0 mm 0,0 km/h (0 Bft) N 0,00 h -2,9 C 0,0 km/h (0 Bft)
19.02.2016 05:00 -1,2 C -1,4 C 88 % 1016,7 hPa 0,0 mm 0,0 km/h (0 Bft) N 0,00 h -2,8 C 0,0 km/h (0 Bft)
19.02.2016 06:00 -0,9 C -1,1 C 89 % 1017,1 hPa 0,0 mm 0,0 km/h (0 Bft) N 0,00 h -2,4 C 0,0 km/h (0 Bft)
19.02.2016 07:00 -0,9 C -1,2 C 90 % 1017,1 hPa 0,0 mm 0,5 km/h (0 Bft) O-SO 0,00 h -2,4 C 1,1 km/h (0 Bft)
19.02.2016 08:00 -0,0 C -0,4 C 88 % 1017,8 hPa 0,0 mm 4,6 km/h (1 Bft) O-SO 0,00 h -1,7 C 6,4 km/h (2 Bft)
19.02.2016 09:00 0,6 C 0,6 C 87 % 1018,4 hPa 0,0 mm 3,8 km/h (1 Bft) W-SW 0,00 h -1,4 C 4,9 km/h (1 Bft)
19.02.2016 10:00 1,0 C 1,5 C 86 % 1019,0 hPa 0,7 mm 4,2 km/h (1 Bft) W-SW 0,00 h -1,1 C 7,3 km/h (2 Bft)
19.02.2016 11:00 1,1 C 1,3 C 86 % 1019,5 hPa 0,0 mm 7,1 km/h (2 Bft) W 0,00 h -1,0 C 8,5 km/h (2 Bft)
19.02.2016 12:00 1,3 C 1,3 C 85 % 1019,8 hPa 0,0 mm 9,2 km/h (2 Bft) W-SW 0,00 h -0,9 C 11,9 km/h (2 Bft)
19.02.2016 13:00 1,7 C 2,0 C 84 % 1020,1 hPa 0,0 mm 10,5 km/h (2 Bft) W 0,00 h -0,7 C 13,1 km/h (3 Bft)
19.02.2016 14:00 1,8 C 2,0 C 81 % 1020,5 hPa 0,0 mm 12,7 km/h (3 Bft) W 0,00 h -1,1 C 17,0 km/h (3 Bft)
19.02.2016 15:00 1,3 C 1,0 C 79 % 1020,9 hPa 0,0 mm 11,1 km/h (2 Bft) W 0,00 h -2,0 C 14,0 km/h (3 Bft)
19.02.2016 16:00 1,1 C 0,7 C 78 % 1021,1 hPa 0,0 mm 9,6 km/h (2 Bft) W 0,00 h -2,3 C 10,7 km/h (2 Bft)
19.02.2016 17:00 0,5 C -0,4 C 78 % 1021,4 hPa 0,0 mm 11,3 km/h (2 Bft) W 0,00 h -2,9 C 15,1 km/h (3 Bft)
19.02.2016 18:00 -0,1 C -1,2 C 78 % 1021,9 hPa 0,0 mm 12,7 km/h (3 Bft) W-SW 0,00 h -3,5 C 15,6 km/h (3 Bft)
19.02.2016 19:00 -0,5 C -1,2 C 78 % 1022,4 hPa 0,0 mm 7,0 km/h (2 Bft) W-SW 0,00 h -3,8 C 7,9 km/h (2 Bft)
19.02.2016 20:00 -0,5 C -1,1 C 79 % 1022,5 hPa 0,0 mm 7,1 km/h (2 Bft) W 0,00 h -3,7 C 8,4 km/h (2 Bft)
19.02.2016 21:00 -0,7 C -1,7 C 78 % 1023,1 hPa 0,0 mm 11,9 km/h (2 Bft) W-NW 0,00 h -4,1 C 16,1 km/h (3 Bft)
19.02.2016 22:00 -1,6 C -2,2 C 80 % 1023,5 hPa 0,0 mm 7,3 km/h (2 Bft) W 0,00 h -4,5 C 8,6 km/h (2 Bft)
19.02.2016 23:00 -1,8 C -2,6 C 82 % 1023,3 hPa 0,0 mm 8,3 km/h (2 Bft) W-SW 0,00 h -4,4 C 9,3 km/h (2 Bft)
20.02.2016 00:00 -2,1 C -2,5 C 82 % 1023,1 hPa 0,0 mm 1,9 km/h (1 Bft) SW 0,00 h -4,8 C 2,2 km/h (1 Bft)
20.02.2016 01:00 -2,9 C -3,5 C 82 % 1023,2 hPa 0,0 mm 0,4 km/h (0 Bft) N-NO 0,00 h -5,5 C 0,4 km/h (0 Bft)
20.02.2016 02:00 -3,1 C -3,6 C 84 % 1023,6 hPa 0,0 mm 0,4 km/h (0 Bft) W 0,00 h -5,4 C 0,6 km/h (0 Bft)
20.02.2016 03:00 -4,0 C -4,5 C 84 % 1023,2 hPa 0,0 mm 0,0 km/h (0 Bft) N 0,00 h -6,3 C 0,1 km/h (0 Bft)
20.02.2016 04:00 -4,8 C -5,4 C 84 % 1022,8 hPa 0,0 mm 0,0 km/h (0 Bft) N 0,00 h -7,0 C 0,0 km/h (0 Bft)
20.02.2016 05:00 -5,1 C -5,8 C 85 % 1022,8 hPa 0,0 mm 0,0 km/h (0 Bft) N 0,00 h -7,2 C 0,0 km/h (0 Bft)
20.02.2016 06:00 -5,2 C -5,9 C 84 % 1023,0 hPa 0,0 mm 0,0 km/h (0 Bft) N 0,00 h -7,4 C 0,0 km/h (0 Bft)
20.02.2016 07:00 -5,0 C -5,5 C 83 % 1023,0 hPa 0,0 mm 0,0 km/h (0 Bft) N 0,00 h -7,4 C 0,2 km/h (0 Bft)
20.02.2016 08:00 -2,9 C -3,0 C 79 % 1022,5 hPa 0,0 mm 0,1 km/h (0 Bft) N 0,00 h -6,0 C 0,3 km/h (0 Bft)
20.02.2016 09:00 -0,9 C -0,6 C 77 % 1022,5 hPa 0,0 mm 1,5 km/h (1 Bft) W-SW 0,00 h -4,5 C 1,8 km/h (1 Bft)
20.02.2016 10:00 1,1 C 3,6 C 75 % 1022,1 hPa 0,0 mm 1,5 km/h (1 Bft) W 0,78 h -2,8 C 2,8 km/h (1 Bft)
20.02.2016 11:00 2,7 C 5,4 C 70 % 1021,9 hPa 0,0 mm 3,1 km/h (1 Bft) W-SW 0,78 h -2,2 C 4,0 km/h (1 Bft)
20.02.2016 12:00 3,2 C 5,0 C 67 % 1021,2 hPa 0,0 mm 1,7 km/h (1 Bft) W-SW 0,00 h -2,3 C 2,3 km/h (1 Bft)
20.02.2016 13:00 3,3 C 4,3 C 68 % 1020,3 hPa 0,0 mm 1,6 km/h (1 Bft) W-SW 0,00 h -2,0 C 2,6 km/h (1 Bft)
20.02.2016 14:00 2,7 C 2,5 C 77 % 1019,7 hPa 1,4 mm 4,3 km/h (1 Bft) W-SW 0,00 h -1,0 C 5,8 km/h (2 Bft)
20.02.2016 15:00 3,0 C 2,6 C 84 % 1019,5 hPa 2,1 mm 7,1 km/h (2 Bft) W 0,00 h 0,5 C 9,3 km/h (2 Bft)
20.02.2016 16:00 3,4 C 2,8 C 87 % 1019,0 hPa 2,1 mm 10,1 km/h (2 Bft) W-SW 0,00 h 1,5 C 14,6 km/h (3 Bft)
20.02.2016 17:00 3,6 C 2,9 C 88 % 1019,1 hPa 1,4 mm 10,6 km/h (2 Bft) W 0,00 h 1,8 C 13,1 km/h (3 Bft)
20.02.2016 18:00 3,7 C 3,1 C 90 % 1019,5 hPa 2,1 mm 9,8 km/h (2 Bft) W 0,00 h 2,1 C 14,0 km/h (3 Bft)
20.02.2016 19:00 3,7 C 3,2 C 90 % 1019,5 hPa 2,7 mm 8,9 km/h (2 Bft) W 0,00 h 2,2 C 12,1 km/h (2 Bft)
20.02.2016 20:00 4,2 C 3,4 C 90 % 1019,0 hPa 0,7 mm 12,1 km/h (2 Bft) W-SW 0,00 h 2,6 C 17,0 km/h (3 Bft)
20.02.2016 21:00 4,9 C 4,0 C 88 % 1018,8 hPa 1,4 mm 17,0 km/h (3 Bft) W-SW 0,00 h 3,1 C 23,4 km/h (4 Bft)
20.02.2016 22:00 5,4 C 4,4 C 86 % 1018,5 hPa 0,7 mm 16,5 km/h (3 Bft) W 0,00 h 3,3 C 22,3 km/h (4 Bft)
20.02.2016 23:00 5,8 C 5,0 C 86 % 1018,6 hPa 0,0 mm 15,8 km/h (3 Bft) W 0,00 h 3,6 C 19,7 km/h (3 Bft)
21.02.2016 00:00 6,6 C 5,8 C 85 % 1018,3 hPa 0,7 mm 16,8 km/h (3 Bft) W-SW 0,00 h 4,3 C 23,3 km/h (4 Bft)
21.02.2016 01:00 7,0 C 6,3 C 87 % 1018,5 hPa 1,4 mm 14,7 km/h (3 Bft) W 0,00 h 5,0 C 19,5 km/h (3 Bft)
21.02.2016 02:00 8,1 C 7,2 C 85 % 1018,4 hPa 0,0 mm 19,4 km/h (3 Bft) W 0,00 h 5,7 C 26,6 km/h (4 Bft)
21.02.2016 03:00 8,9 C 8,4 C 81 % 1018,1 hPa 0,0 mm 19,8 km/h (3 Bft) W 0,00 h 5,8 C 25,8 km/h (4 Bft)
21.02.2016 04:00 9,9 C 9,6 C 78 % 1017,9 hPa 0,0 mm 17,1 km/h (3 Bft) W-SW 0,00 h 6,2 C 22,6 km/h (4 Bft)
21.02.2016 05:00 10,5 C 10,2 C 73 % 1018,3 hPa 0,0 mm 19,1 km/h (3 Bft) W 0,00 h 5,8 C 25,2 km/h (4 Bft)
21.02.2016 06:00 11,0 C 10,8 C 68 % 1018,5 hPa 0,0 mm 17,7 km/h (3 Bft) W 0,00 h 5,4 C 23,9 km/h (4 Bft)
21.02.2016 07:00 11,1 C 10,9 C 66 % 1019,3 hPa 0,0 mm 18,0 km/h (3 Bft) W 0,00 h 5,0 C 25,1 km/h (4 Bft)
21.02.2016 08:00 10,3 C 9,7 C 70 % 1020,0 hPa 0,0 mm 20,3 km/h (4 Bft) W 0,00 h 5,0 C 25,3 km/h (4 Bft)
21.02.2016 09:00 9,9 C 9,2 C 75 % 1020,2 hPa 0,7 mm 15,6 km/h (3 Bft) W 0,00 h 5,7 C 20,3 km/h (4 Bft)
21.02.2016 10:00 10,3 C 9,8 C 73 % 1020,9 hPa 0,0 mm 15,9 km/h (3 Bft) NW 0,00 h 5,7 C 21,5 km/h (4 Bft)
21.02.2016 11:00 11,1 C 12,6 C 74 % 1021,0 hPa 0,0 mm 13,1 km/h (3 Bft) W-SW 0,25 h 6,6 C 18,8 km/h (3 Bft)
21.02.2016 12:00 12,5 C 13,7 C 65 % 1020,7 hPa 0,0 mm 19,8 km/h (4 Bft) W 0,13 h 6,1 C 28,1 km/h (4 Bft)
21.02.2016 13:00 14,4 C 16,2 C 57 % 1020,2 hPa 0,0 mm 25,3 km/h (4 Bft) W 0,58 h 5,9 C 32,4 km/h (5 Bft)
21.02.2016 14:00 14,2 C 15,5 C 55 % 1020,2 hPa 0,0 mm 24,7 km/h (4 Bft) W 0,23 h 5,2 C 26,9 km/h (4 Bft)
21.02.2016 15:00 13,4 C 14,5 C 54 % 1019,8 hPa 0,0 mm 19,6 km/h (3 Bft) W 0,30 h 4,4 C 23,6 km/h (4 Bft)
21.02.2016 16:00 13,6 C 13,6 C 49 % 1019,6 hPa 0,0 mm 18,3 km/h (3 Bft) W 0,00 h 3,2 C 22,3 km/h (4 Bft)
21.02.2016 17:00 11,6 C 11,5 C 54 % 1019,3 hPa 0,0 mm 13,0 km/h (3 Bft) W-SW 0,00 h 2,5 C 15,6 km/h (3 Bft)
21.02.2016 18:00 9,5 C 9,3 C 60 % 1018,8 hPa 0,0 mm 9,2 km/h (2 Bft) W-SW 0,00 h 2,2 C 11,2 km/h (2 Bft)
21.02.2016 19:00 9,1 C 8,8 C 59 % 1017,3 hPa 0,0 mm 9,8 km/h (2 Bft) SW 0,00 h 1,5 C 11,6 km/h (2 Bft)
21.02.2016 20:00 10,1 C 9,7 C 47 % 1016,5 hPa 0,0 mm 12,4 km/h (3 Bft) SW 0,00 h -0,7 C 15,0 km/h (3 Bft)
21.02.2016 21:00 9,8 C 9,5 C 44 % 1016,2 hPa 0,0 mm 13,3 km/h (3 Bft) SW 0,00 h -1,9 C 16,6 km/h (3 Bft)
21.02.2016 22:00 7,8 C 7,9 C 45 % 1015,8 hPa 0,0 mm 8,1 km/h (2 Bft) SW 0,00 h -3,5 C 9,2 km/h (2 Bft)
21.02.2016 23:00 9,6 C 9,2 C 47 % 1015,8 hPa 0,0 mm 13,2 km/h (3 Bft) W-SW 0,00 h -1,1 C 15,7 km/h (3 Bft)
Min-Datum _ 20.02.16 20.02.16 21.02.16 15.02.16 - 21.02.16 - - 20.02.16 21.02.16
_ Min-Zeit 07:00 07:00 22:01 00:00 - 22:37 - - 07:05 22:27
Minimum _ -5,6 C -6,1 C 39 % 997,0 hPa - 0,0 km/h (0 Bft) - - -8,0 C 0,0 km/h (0 Bft)
Max-Datum _ 21.02.16 21.02.16 17.02.16 16.02.16 20.02.16 21.02.16 - 21.02.16 21.02.16 21.02.16
_ Max-Zeit 13:34 13:39 08:00 11:23 19:05 14:25 - 14:04 11:47 05:04
Maximum _ 15,0 C 17,7 C 96 % 1027,8 hPa 2,7 mm 28,6 km/h
W (4 Bft)
- 0,08 h 7,3 C 67,1 km/h
W (8 Bft)
Durchschnitt _ 1,6 C 1,4 C 84 % 1017,9 hPa #22,0 mm 5,8 km/h (2 Bft) W #4:06 h -1,0 C 7,5 km/h (2 Bft)